Louisville, KY

9:04 AM EST on January 16, 2017 (GMT -0500)
Louisville International-Standiford

Weather History for KSDF - October, 2012

Change the Weather History Date:

Sunday, October 14, 2012

  Actual Average Record
Temperature  
Mean Temperature 68 °F 60 °F  
Max Temperature 77 °F 71 °F 90 °F (1897)
Min Temperature 59 °F 49 °F 33 °F (1979)
Degree Days  
Heating Degree Days 0 6  
Month to date heating degree days 109 68  
Since 1 July heating degree days 141 98  
Cooling Degree Days 3 1  
Month to date cooling degree days 7 29  
Year to date cooling degree days 1928 1596  
Growing Degree Days 20 (Base 50)    
Moisture  
Dew Point 58 °F    
Average Humidity 74    
Maximum Humidity 97    
Minimum Humidity 50    
Precipitation  
Precipitation 0.01 in 0.11 in 1.53 in (2001)
Month to date precipitation 1.31 1.48  
Year to date precipitation 36.71 35.75  
Snow  
Snow 0.00 in 0.00 in 0.00 in ()
Month to date snowfall 0.0 0.0  
Since 1 July snowfall 0.0 0.0  
Since 1 September snowfall 0.0 0.0  
Snow Depth 0.00 in    
Sea Level Pressure  
Sea Level Pressure 29.87 in    
Wind  
Wind Speed 16 mph (SSW)    
Max Wind Speed 31 mph    
Max Gust Speed 44 mph    
Visibility 10 miles    
Events Rain    
T = Trace of Precipitation, MM = Missing Value Source: NWS Daily Summary

Daily Weather History Graph

Daily Weather History Graph

Search for Another Location

Airport or City:

Trip Planner

Search our weather history database for the weather conditions in past years. The results will help you decide how hot, cold, wet, or windy it might be!

Date:

Astronomy

Oct. 14, 2012 Rise Set
Actual Time 7:51 AM EDT 7:05 PM EDT
Civil Twilight 7:24 AM EDT 7:32 PM EDT
Nautical Twilight 6:54 AM EDT 8:02 PM EDT
Astronomical Twilight 6:23 AM EDT 8:33 PM EDT
Moon 6:49 AM EDT (10/14) 6:25 PM EDT (10/14)
Length of Visible Light 12h 07m
Length of Day
11h 14m
Waning Crescent, 1% of the Moon is Illuminated
Oct 14
Waning Crescent
Oct 15
New
Oct 21
First Quarter
Oct 29
Full
Nov 6
Last Quarter

Hourly Weather History & Observations

Time (EDT) Temp. Dew Point Humidity Pressure Visibility Wind Dir Wind Speed Gust Speed Precip Events Conditions
12:56 AM 68.0 °F 59.0 °F 73% 30.02 in 10.0 mi South 15.0 mph - N/A   Overcast
1:56 AM 68.0 °F 59.0 °F 73% 30.00 in 10.0 mi South 11.5 mph 19.6 mph N/A   Overcast
2:56 AM 66.0 °F 57.0 °F 73% 29.99 in 10.0 mi South 10.4 mph - N/A   Mostly Cloudy
3:56 AM 66.0 °F 55.9 °F 70% 29.97 in 10.0 mi South 12.7 mph 19.6 mph N/A   Mostly Cloudy
4:56 AM 66.0 °F 55.0 °F 68% 29.97 in 10.0 mi South 17.3 mph 21.9 mph N/A   Mostly Cloudy
5:56 AM 64.9 °F 55.0 °F 70% 29.97 in 10.0 mi South 12.7 mph 21.9 mph N/A   Overcast
6:56 AM 64.4 °F 55.4 °F 73% 29.98 in 10.0 mi South 12.7 mph - N/A   Overcast
7:56 AM 66.0 °F 55.0 °F 68% 29.97 in 10.0 mi South 15.0 mph - N/A   Overcast
8:56 AM 66.0 °F 55.0 °F 68% 29.95 in 10.0 mi South 17.3 mph 25.3 mph N/A   Mostly Cloudy
9:56 AM 66.9 °F 55.9 °F 68% 29.94 in 10.0 mi South 18.4 mph 25.3 mph N/A   Overcast
10:56 AM 69.1 °F 57.9 °F 68% 29.91 in 10.0 mi South 21.9 mph 31.1 mph N/A   Overcast
11:56 AM 71.1 °F 59.0 °F 66% 29.85 in 10.0 mi South 21.9 mph 31.1 mph N/A   Overcast
12:56 PM 71.1 °F 60.1 °F 68% 29.85 in 9.0 mi South 24.2 mph 34.5 mph 0.00 in Rain Light Rain
1:56 PM 72.0 °F 61.0 °F 68% 29.82 in 10.0 mi South 17.3 mph 32.2 mph 0.00 in   Overcast
2:56 PM 73.9 °F 61.0 °F 64% 29.79 in 10.0 mi South 16.1 mph 34.5 mph 0.00 in   Overcast
3:56 PM 75.9 °F 61.0 °F 60% 29.76 in 10.0 mi SSW 19.6 mph 28.8 mph 0.00 in Rain Light Rain
4:56 PM 75.0 °F 61.0 °F 62% 29.75 in 10.0 mi SSW 17.3 mph 31.1 mph 0.00 in   Mostly Cloudy
5:56 PM 75.9 °F 55.9 °F 50% 29.74 in 10.0 mi SW 23.0 mph 39.1 mph N/A   Mostly Cloudy
6:56 PM 73.9 °F 55.0 °F 52% 29.75 in 10.0 mi SW 18.4 mph 33.4 mph N/A   Mostly Cloudy
7:56 PM 69.1 °F 59.0 °F 70% 29.75 in 10.0 mi SSW 19.6 mph 29.9 mph 0.00 in Rain Light Rain
8:56 PM 66.0 °F 61.0 °F 84% 29.78 in 10.0 mi SW 11.5 mph - 0.00 in   Mostly Cloudy
9:56 PM 63.0 °F 60.1 °F 90% 29.81 in 10.0 mi WSW 12.7 mph - 0.01 in Rain Light Rain
10:56 PM 63.0 °F 60.1 °F 90% 29.83 in 10.0 mi WSW 10.4 mph - 0.00 in   Mostly Cloudy
11:20 PM 62.6 °F 60.8 °F 94% 29.85 in 10.0 mi WSW 10.4 mph - N/A   Overcast
11:56 PM 61.0 °F 59.0 °F 93% 29.85 in 10.0 mi West 10.4 mph 19.6 mph N/A   Overcast